[[{"header":{"parameterUnit":"m.s-1","parameterCategory":1,"la1":30.2991,"la2":30.254,"lo1":-89.0895,"lo2":-89.0444,"dy":0.0017,"dx":0.0017,"nx":28,"ny":28,"refTime":"2024-06-22T21:00:00:Z","depth":0,"parameterNumber":2,"parameterNumberName":"U-component_of_WINDS"},"data":[0,0,0,0,0,0,0,0,0,0,0,0,0,0,0,0,0,0,0,0,0,0,0,0,0,0,0,0,0,0,0,0,0,0,0,0,0,0,0,0,0,0,0,0,0,0,0,0,0,0,0,0,0,0,0,0,0,0,-1.9485,-1.9484,0,-1.9408,-1.9408,-1.9407,-1.9343,-1.9342,-1.9341,-1.934,-1.9262,-1.9261,-1.926,0,0,0,0,0,0,0,0,0,0,0,0,0,-1.9577,-1.9576,-1.9485,-1.9484,-1.9483,-1.9409,-1.9408,-1.9406,-1.9343,-1.9342,-1.9341,-1.934,-1.9263,-1.9261,-1.9259,0,0,0,0,0,0,0,0,0,0,0,0,0,-1.9523,-1.9576,-1.9485,-1.9442,-1.9438,-1.9409,-1.9408,-1.9406,-1.9343,-1.9342,-1.9341,-1.934,-1.9263,-1.9261,-1.9259,-1.9267,0,0,-1.9253,-1.9252,0,0,0,0,0,0,0,0,-1.9526,-1.9519,-1.9449,-1.9445,-1.944,-1.9384,-1.9411,-1.9359,-1.9343,-1.9379,-1.934,-1.9339,-1.9304,-1.9298,-1.9286,-1.9263,-1.926,-1.9252,-1.9251,-1.925,-1.925,0,0,0,0,0,0,0,-1.953,-1.9522,-1.9455,-1.9449,-1.9443,-1.9427,-1.9418,-1.9401,-1.9348,-1.9376,-1.9371,-1.9363,-1.9301,-1.9288,-1.9284,-1.9259,-1.9252,-1.9251,-1.9249,-1.9248,-1.924,-1.9241,0,0,0,0,0,0,-1.954,-1.9526,-1.9457,-1.9452,-1.9481,-1.9427,-1.9417,-1.9403,-1.9348,-1.9339,-1.9364,-1.936,-1.9292,-1.9286,-1.9281,-1.9287,-1.925,-1.9248,-1.9247,-1.9239,-1.9241,-1.9242,0,0,0,0,0,0,-1.9542,-1.9535,-1.946,-1.9488,-1.9477,-1.9426,-1.9411,-1.9402,-1.9389,-1.9339,-1.9329,-1.936,-1.9291,-1.9284,-1.9271,-1.9283,-1.9247,-1.9245,-1.9238,-1.924,-1.9241,-1.9299,0,0,0,0,0,0,-1.9545,-1.9536,-1.9537,-1.9488,-1.9476,-1.9451,-1.9412,-1.9401,-1.9386,-1.938,-1.9333,-1.9325,-1.929,-1.9275,-1.9269,-1.928,-1.9244,-1.9237,-1.9239,-1.9241,-1.9296,-1.9303,-1.9308,0,0,0,0,0,-1.9549,-1.9556,-1.9538,-1.953,-1.9477,-1.9452,-1.9445,-1.9405,-1.9387,-1.9389,-1.9357,-1.9326,-1.9283,-1.9274,-1.9267,-1.9277,-1.9236,-1.9238,-1.9241,-1.9293,-1.9301,-1.9308,0,0,0,0,0,0,-1.9607,-1.9549,-1.9528,-1.952,-1.9492,-1.9441,-1.9442,-1.9415,-1.9391,-1.9387,-1.9338,-1.9328,-1.9321,-1.9298,-1.9289,-1.9283,-1.9256,-1.9257,-1.9298,-1.9305,-1.9311,-1.9317,-1.9242,0,0,0,0,0,-1.962,-1.9604,-1.9554,-1.9552,-1.9539,-1.9493,-1.9481,-1.9453,-1.9422,-1.9409,-1.9376,-1.9347,-1.9328,-1.9315,-1.9294,-1.9293,-1.9283,-1.9297,-1.9303,-1.9308,-1.931,-1.9309,-1.9315,-1.925,-1.925,-1.925,0,0,-1.9644,-1.961,-1.9603,-1.9563,-1.9537,-1.9523,-1.9483,-1.9469,-1.9458,-1.9407,-1.9393,-1.9369,-1.9333,-1.9327,-1.9322,-1.9307,-1.9326,-1.9312,-1.9316,-1.9314,-1.9312,-1.9319,-1.9324,-1.9251,-1.9251,-1.9251,0,0,-1.9681,-1.9654,-1.965,-1.9626,-1.9589,-1.9559,-1.9558,-1.9513,-1.9494,-1.948,-1.9442,-1.9429,-1.9395,-1.9372,-1.9356,-1.9389,-1.936,-1.9383,-1.9415,-1.9415,-1.942,-1.9424,-1.9437,-1.9442,-1.9385,-1.9385,-1.9385,0,-1.9716,-1.9692,-1.9651,-1.964,-1.9624,-1.9578,-1.9574,-1.9553,-1.9511,-1.9501,-1.9485,-1.9444,-1.9416,-1.9405,-1.9413,-1.9402,-1.94,-1.9387,-1.9423,-1.9427,-1.943,-1.9441,-1.9446,-1.9388,-1.9388,-1.9387,-1.9387,0,-1.9738,-1.9722,-1.9724,-1.9685,-1.9669,-1.9662,-1.962,-1.9609,-1.9584,-1.9556,-1.9543,-1.951,-1.9482,-1.9477,-1.9452,-1.9463,-1.9455,-1.9432,-1.9403,-1.944,-1.945,-1.9454,-1.9393,-1.9391,-1.939,-1.939,0,0,-1.9807,-1.9748,-1.9749,-1.9732,-1.9689,-1.9676,-1.9668,-1.9641,-1.9633,-1.9607,-1.9599,-1.9573,-1.9552,-1.9534,-1.9506,-1.9506,-1.9535,-1.9483,-1.9481,-1.9494,-1.9547,-1.9565,-1.957,-1.9517,-1.9518,-1.9518,-1.955,0,-1.9837,-1.9819,-1.9783,-1.9776,-1.9762,-1.972,-1.9713,-1.9686,-1.9661,-1.9646,-1.9618,-1.9601,-1.9574,-1.9564,-1.9562,-1.9532,-1.9545,-1.953,-1.951,-1.9509,-1.9519,-1.9575,-1.9593,-1.9625,-1.9554,-1.9554,-1.9555,0,-1.9869,-1.9846,-1.9838,-1.9799,-1.9791,-1.9785,-1.9759,-1.9745,-1.9715,-1.9697,-1.9679,-1.9649,-1.9639,-1.9614,-1.96,-1.959,-1.958,-1.9565,-1.9565,-1.9561,-1.9534,-1.9573,-1.9634,-1.9639,-1.956,-1.956,-1.9559,0,-1.9921,-1.9888,-1.988,-1.9866,-1.9819,-1.9817,-1.9797,-1.9766,-1.9753,-1.9731,-1.9722,-1.9699,-1.9686,-1.967,-1.9635,-1.9619,-1.9626,-1.9597,-1.9611,-1.9612,-1.9613,-1.9613,-1.9673,-1.9607,-1.9607,-1.9607,-1.9607,0,-1.9958,-1.9955,-1.9903,-1.9897,-1.9894,-1.9853,-1.985,-1.9827,-1.9801,-1.9791,-1.9753,-1.9745,-1.9699,-1.9687,-1.9659,-1.9653,-1.9647,-1.9633,-1.9626,-1.9636,-1.9638,-1.9628,-1.9625,-1.9608,-1.9608,-1.9608,-1.9608,0,-2.0014,-1.9979,-1.9967,-1.9925,-1.9914,-1.9913,-1.9877,-1.9871,-1.9845,-1.9834,-1.9829,-1.9787,-1.977,-1.9734,-1.9707,-1.9689,-1.969,-1.9676,-1.97,-1.9695,-1.9711,-1.971,-1.9766,-1.9772,-1.9703,-1.9704,-1.9705,0,-2.004,-2.0037,-1.9995,-1.9986,-1.9968,-1.9954,-1.9941,-1.9902,-1.989,-1.9858,-1.9856,-1.9836,-1.9818,-1.9794,-1.9762,-1.9741,-1.9728,-1.9749,-1.9724,-1.9735,-1.9728,-1.9729,-1.9729,-1.9754,-1.9755,-1.9756,-1.9756,0,-2.0089,-2.0073,-2.0055,-2.0033,-2.0019,-1.9999,-1.9977,-1.9973,-1.9929,-1.9918,-1.99,-1.9887,-1.986,-1.9841,-1.9817,-1.9798,-1.977,-1.9765,-1.9767,-1.9777,-1.9791,-1.9784,-1.9714,-1.9763,-1.9763,-1.9762,-1.9762,-1.9762,-2.0131,-2.0127,-2.0097,-2.008,-2.006,-2.0041,-2.0034,-2.0008,-1.9993,-1.9968,-1.9947,-1.9932,-1.9904,-1.9869,-1.9852,-1.984,-1.9826,-1.9829,-1.983,-1.9831,-1.9836,-1.9794,-1.9835,-1.9835,-1.9835,-1.9835,-1.9835,0,-2.0178,-2.0158,-2.0143,-2.0114,-2.0101,-2.0078,-2.0053,-2.0044,-2.0031,-2.0008,-1.9992,-1.9973,-1.9956,-1.9924,-1.9904,-1.9901,-1.9888,-1.9897,-1.9896,-1.9893,-1.9849,-1.9849,-1.9908,-1.9908,-1.9908,-1.9908,-1.9908,-1.9908,-2.0201,-2.0194,-2.0174,-2.0157,-2.0137,-2.0122,-2.011,-2.0094,-2.0075,-2.0056,-2.0041,-2.0021,-1.9995,-1.9973,-1.9957,-1.9948,-1.9943,-1.9956,-1.9943,-1.9902,-1.9896,-1.9889,-1.9889,-1.9955,-1.9955,-1.9987,-1.9988,-1.9988]},{"header":{"parameterUnit":"m.s-1","parameterCategory":1,"la1":30.2991,"la2":30.254,"lo1":-89.0895,"lo2":-89.0444,"dy":0.0017,"dx":0.0017,"nx":28,"ny":28,"refTime":"2024-06-22T21:00:00:Z","depth":0,"parameterNumber":3,"parameterNumberName":"V-component_of_WINDS"},"data":[0,0,0,0,0,0,0,0,0,0,0,0,0,0,0,0,0,0,0,0,0,0,0,0,0,0,0,0,0,0,0,0,0,0,0,0,0,0,0,0,0,0,0,0,0,0,0,0,0,0,0,0,0,0,0,0,0,0,2.1932,2.1932,0,2.1955,2.1956,2.1956,2.2032,2.2034,2.2035,2.2037,2.2055,2.2054,2.2053,0,0,0,0,0,0,0,0,0,0,0,0,0,2.1948,2.1948,2.1932,2.1932,2.1933,2.1955,2.1956,2.1956,2.2032,2.2034,2.2036,2.2038,2.2055,2.2054,2.2053,0,0,0,0,0,0,0,0,0,0,0,0,0,2.1953,2.1947,2.1932,2.1973,2.1977,2.1955,2.1956,2.1956,2.2031,2.2034,2.2036,2.2039,2.2056,2.2054,2.2052,2.1991,0,0,2.2047,2.2047,0,0,0,0,0,0,0,0,2.1953,2.1952,2.1967,2.197,2.1975,2.1994,2.1968,2.1967,2.203,2.201,2.2037,2.204,2.2032,2.2032,2.2031,2.1992,2.1992,2.2047,2.2046,2.2045,2.2045,0,0,0,0,0,0,0,2.1952,2.1952,2.1941,2.1967,2.1972,2.1989,2.1993,2.1968,2.2006,2.2012,2.2018,2.202,2.2035,2.2032,2.2032,2.1993,2.2047,2.2046,2.2045,2.2044,2.1903,2.1901,0,0,0,0,0,0,2.1947,2.1951,2.194,2.1942,2.197,2.1987,2.1991,2.1985,2.2007,2.2013,2.2018,2.2023,2.2034,2.2034,2.2033,2.1961,2.2046,2.2044,2.2043,2.1906,2.1903,2.19,0,0,0,0,0,0,2.1947,2.1945,2.1939,2.1948,2.1949,2.1984,2.1976,2.1984,2.1982,2.2011,2.2018,2.2009,2.2036,2.2035,2.2001,2.1963,2.2043,2.2042,2.1909,2.1905,2.1901,2.1818,0,0,0,0,0,0,2.1947,2.1945,2.1923,2.1947,2.1948,2.1908,2.1974,2.1982,2.1979,2.1987,2.2004,2.201,2.2038,2.2003,2.1999,2.1962,2.204,2.1913,2.1907,2.1903,2.1824,2.1811,2.18,0,0,0,0,0,2.1947,2.1897,2.1921,2.1919,2.1921,2.1906,2.1906,2.1941,2.1976,2.1953,2.1972,2.2009,2.1968,2.1999,2.1995,2.1957,2.1915,2.1909,2.1903,2.1829,2.1814,2.1801,0,0,0,0,0,0,2.1865,2.1901,2.1928,2.1884,2.1892,2.1919,2.1891,2.1924,2.192,2.1927,2.197,2.1973,2.1932,2.1942,2.1975,2.1898,2.1948,2.1941,2.1893,2.1879,2.1867,2.1864,2.2039,0,0,0,0,0,2.1842,2.1828,2.186,2.1818,2.1821,2.1855,2.185,2.1877,2.1885,2.1888,2.1904,2.191,2.1898,2.1889,2.1881,2.1827,2.183,2.1799,2.1787,2.1777,2.1769,2.174,2.1726,2.188,2.188,2.188,0,0,2.1794,2.1812,2.18,2.1802,2.1811,2.1794,2.1857,2.1836,2.1824,2.1884,2.1853,2.1865,2.1874,2.1829,2.1811,2.1836,2.1728,2.1769,2.1761,2.1759,2.1732,2.1718,2.1705,2.1875,2.1876,2.1877,0,0,2.1696,2.171,2.1676,2.1684,2.1698,2.1721,2.1713,2.1736,2.1747,2.1717,2.1762,2.1747,2.1726,2.173,2.173,2.1636,2.1669,2.1632,2.1569,2.154,2.1528,2.1517,2.1482,2.1469,2.1625,2.1625,2.1624,0,2.1634,2.1612,2.1654,2.1631,2.163,2.1687,2.1652,2.1657,2.1666,2.1663,2.1693,2.1668,2.1678,2.1635,2.1612,2.1611,2.1601,2.1628,2.1527,2.1517,2.1507,2.1474,2.1461,2.162,2.162,2.1621,2.1621,0,2.1533,2.1517,2.1488,2.1497,2.1493,2.1464,2.1501,2.1492,2.1519,2.1539,2.1507,2.1522,2.1517,2.1509,2.1535,2.1469,2.1484,2.152,2.157,2.1487,2.1456,2.1444,2.1613,2.1615,2.1616,2.1617,0,0,2.1381,2.1417,2.1405,2.1409,2.1429,2.1417,2.139,2.1387,2.1377,2.1382,2.136,2.1342,2.1375,2.1374,2.1402,2.1377,2.13,2.1415,2.1416,2.1391,2.1226,2.1197,2.1181,2.1323,2.1321,2.1319,2.1224,0,2.1288,2.1245,2.1283,2.1233,2.1218,2.1273,2.1249,2.1258,2.1276,2.1265,2.1285,2.1271,2.1317,2.1317,2.1295,2.1313,2.1266,2.1321,2.13,2.1298,2.1293,2.1166,2.1135,2.1045,2.1213,2.1211,2.1209,0,2.1172,2.1173,2.1121,2.1145,2.114,2.1118,2.1119,2.1108,2.1119,2.1134,2.1134,2.1169,2.1142,2.1194,2.1158,2.1194,2.1188,2.1196,2.1194,2.119,2.1246,2.1156,2.1017,2.1002,2.1191,2.1192,2.1194,0,2.1063,2.1053,2.102,2.1023,2.105,2.1033,2.1044,2.1058,2.1053,2.1053,2.1051,2.1047,2.1044,2.104,2.1072,2.1107,2.103,2.1085,2.104,2.1039,2.1019,2.1019,2.0873,2.1019,2.1019,2.102,2.102,0,2.0953,2.0918,2.0972,2.0951,2.0914,2.0959,2.092,2.0936,2.0948,2.0931,2.0978,2.096,2.1006,2.0992,2.1017,2.0982,2.0981,2.0991,2.0997,2.0985,2.0983,2.0979,2.0985,2.1016,2.1017,2.1018,2.1018,0,2.0824,2.0859,2.0827,2.0857,2.0863,2.0834,2.0858,2.084,2.0863,2.084,2.0837,2.0872,2.0859,2.0891,2.0882,2.0899,2.0848,2.0866,2.0845,2.0849,2.0801,2.0804,2.0645,2.0626,2.0787,2.0785,2.0784,0,2.075,2.0725,2.0752,2.0745,2.0753,2.0741,2.0737,2.078,2.0774,2.0786,2.0765,2.0757,2.0751,2.0727,2.075,2.0744,2.076,2.0705,2.0759,2.0747,2.0756,2.0756,2.0753,2.0692,2.069,2.0689,2.0688,0,2.0613,2.0632,2.0626,2.0626,2.0621,2.0623,2.0628,2.0619,2.0665,2.0655,2.0643,2.064,2.0632,2.0621,2.062,2.0629,2.0664,2.0671,2.066,2.0645,2.0633,2.0637,2.0811,2.0674,2.0675,2.0676,2.0677,2.0677,2.0508,2.0488,2.0504,2.0496,2.0505,2.0509,2.0493,2.0515,2.0506,2.0504,2.053,2.0512,2.0524,2.0526,2.0532,2.0517,2.0542,2.0526,2.0521,2.0516,2.0507,2.0638,2.0517,2.0518,2.0518,2.0519,2.0519,0,2.0372,2.0386,2.0378,2.0384,2.0377,2.0415,2.0423,2.0414,2.0398,2.0407,2.0402,2.0388,2.0379,2.0402,2.0396,2.038,2.0396,2.0376,2.0376,2.0377,2.0487,2.0496,2.0363,2.0363,2.0363,2.0363,2.0364,2.0364,2.03,2.0268,2.0289,2.0262,2.0276,2.026,2.0261,2.0264,2.0272,2.0254,2.0248,2.0264,2.0278,2.0274,2.0267,2.0274,2.0268,2.0242,2.0254,2.0355,2.037,2.0384,2.0393,2.0241,2.0241,2.0146,2.0145,2.0145]}]]